Weather History for London-Corbin, KY

Change the Weather History Date:

Tuesday, April 22, 2014

  Actual Average Record
Temperature  
Mean Temperature 65 °F 59 °F  
Max Temperature 76 °F 71 °F 87 °F (1963)
Min Temperature 54 °F 47 °F 31 °F (1986)
Degree Days  
Heating Degree Days 0 7  
Month to date heating degree days 146 225  
Since 1 July heating degree days 4304 4050  
Cooling Degree Days 0 1  
Month to date cooling degree days 16 14  
Year to date cooling degree days 16 17  
Growing Degree Days 17 (Base 50)    
Moisture  
Dew Point 51 °F    
Average Humidity 60    
Maximum Humidity 84    
Minimum Humidity 36    
Precipitation  
Precipitation 0.03 in 0.14 in 1.05 in (1984)
Month to date precipitation 1.78 2.90  
Year to date precipitation 13.46 14.20  
Sea Level Pressure  
Sea Level Pressure 29.83 in    
Wind  
Wind Speed 7 mph (West)    
Max Wind Speed 17 mph    
Max Gust Speed 23 mph    
Visibility 10 miles    
Events Rain    
T = Trace of Precipitation, MM = Missing Value Source: NWS Daily Summary

Daily Weather History Graph

Daily Weather History Graph

Search for Another Location

Airport:

Trip Planner

Search our weather history database for the weather conditions in past years. The results will help you decide how hot, cold, wet, or windy it might be!

Date:

Astronomy

Apr. 22, 2014 Rise Set
Actual Time 6:52 AM EDT 8:17 PM EDT
Civil Twilight 6:25 AM EDT 8:44 PM EDT
Nautical Twilight 5:52 AM EDT 9:17 PM EDT
Astronomical Twilight 5:18 AM EDT 9:51 PM EDT
Moon 2:31 AM EDT (4/22) 1:27 PM EDT (4/22)
Length of Visible Light 14h 19m
Length of Day
13h 24m
Last Quarter, 46% of the Moon is Illuminated
Apr 22
Last Quarter
Apr 29
New
May 6
First Quarter
May 14
Full
May 21
Last Quarter

Hourly Weather History & Observations

Time (EDT) Temp. Dew Point Humidity Pressure Visibility Wind Dir Wind Speed Gust Speed Precip Events Conditions
12:53 AM 64.0 °F 48.0 °F 56% 29.88 in 10.0 mi Calm Calm - N/A   Mostly Cloudy
1:53 AM 62.1 °F 50.0 °F 65% 29.86 in 10.0 mi Calm Calm - N/A   Overcast
2:53 AM 61.0 °F 53.1 °F 75% 29.85 in 10.0 mi North 3.5 mph - 0.00 in Rain Light Rain
3:53 AM 63.0 °F 48.9 °F 60% 29.83 in 10.0 mi SSW 3.5 mph - 0.00 in   Overcast
4:53 AM 64.9 °F 48.0 °F 54% 29.82 in 10.0 mi SW 4.6 mph - N/A   Overcast
5:53 AM 63.0 °F 48.0 °F 58% 29.82 in 10.0 mi SW 4.6 mph - N/A   Overcast
6:53 AM 63.0 °F 48.9 °F 60% 29.82 in 10.0 mi WSW 3.5 mph - N/A   Overcast
7:53 AM 63.0 °F 51.1 °F 65% 29.83 in 10.0 mi West 6.9 mph - N/A   Overcast
8:06 AM 61.0 °F 53.1 °F 75% 29.86 in 2.0 mi West 5.8 mph - 0.03 in Rain Light Rain
8:15 AM 61.0 °F 54.0 °F 78% 29.86 in 10.0 mi West 3.5 mph - 0.03 in Rain Light Rain
8:53 AM 63.0 °F 53.1 °F 70% 29.83 in 10.0 mi WSW 4.6 mph - 0.03 in   Overcast
9:30 AM 63.0 °F 54.0 °F 72% 29.86 in 10.0 mi SW 9.2 mph - N/A   Overcast
9:46 AM 63.0 °F 55.9 °F 78% 29.87 in 10.0 mi WSW 10.4 mph - N/A   Overcast
9:53 AM 63.0 °F 55.9 °F 78% 29.84 in 10.0 mi WSW 8.1 mph - N/A   Overcast
10:00 AM 63.0 °F 55.9 °F 78% 29.87 in 10.0 mi WSW 10.4 mph - N/A   Overcast
10:24 AM 63.0 °F 55.9 °F 78% 29.87 in 10.0 mi West 6.9 mph - N/A   Overcast
10:53 AM 63.0 °F 57.0 °F 81% 29.86 in 10.0 mi West 9.2 mph - N/A   Overcast
11:53 AM 63.0 °F 57.0 °F 81% 29.86 in 9.0 mi WSW 9.2 mph - N/A   Overcast
12:46 PM 64.9 °F 57.0 °F 75% 29.86 in 9.0 mi West 8.1 mph - N/A   Overcast
12:53 PM 66.9 °F 57.0 °F 70% 29.83 in 10.0 mi West 6.9 mph - N/A   Overcast
1:53 PM 68.0 °F 57.0 °F 68% 29.82 in 10.0 mi WSW 8.1 mph - N/A   Mostly Cloudy
2:12 PM 69.1 °F 57.0 °F 65% 29.83 in 9.0 mi SW 6.9 mph - N/A   Overcast
2:43 PM 69.1 °F 57.0 °F 65% 29.83 in 10.0 mi Calm Calm - N/A   Overcast
2:53 PM 69.1 °F 57.0 °F 65% 29.80 in 10.0 mi Calm Calm - N/A   Mostly Cloudy
3:02 PM 69.1 °F 55.9 °F 63% 29.82 in 10.0 mi Calm Calm - N/A   Mostly Cloudy
3:53 PM 70.0 °F 55.0 °F 59% 29.78 in 10.0 mi Variable 3.5 mph - N/A   Overcast
4:53 PM 75.9 °F 50.0 °F 40% 29.75 in 10.0 mi NW 10.4 mph 20.7 mph N/A   Partly Cloudy
5:53 PM 75.0 °F 48.0 °F 38% 29.75 in 10.0 mi NW 10.4 mph - N/A   Partly Cloudy
6:53 PM 72.0 °F 50.0 °F 46% 29.77 in 10.0 mi NW 10.4 mph 23.0 mph N/A   Partly Cloudy
7:53 PM 69.1 °F 48.9 °F 49% 29.79 in 10.0 mi NNW 11.5 mph - N/A   Scattered Clouds
8:53 PM 66.0 °F 43.0 °F 43% 29.82 in 10.0 mi NNW 8.1 mph - N/A   Clear
9:53 PM 63.0 °F 41.0 °F 45% 29.86 in 10.0 mi North 9.2 mph - N/A   Clear
10:53 PM 59.0 °F 33.1 °F 38% 29.89 in 10.0 mi North 9.2 mph - N/A   Clear
11:53 PM 57.9 °F 30.9 °F 36% 29.90 in 10.0 mi North 8.1 mph - N/A   Clear